{"data":{"norad_id":69576,"intl_designator":"2026-137E","name":"HULIANWANG DIGUI-173","alt_names":[],"object_type":"PAYLOAD","status":"ACTIVE","operator":null,"country":"PRC","launch_date":"2026-06-17","launch_site_code":"WSC","launch_vehicle":null,"mission":null,"orbit_class":"UNKNOWN","rcs_meters":null,"size_class":null,"mass_kg":null,"dimensions":null,"purposes":[],"wikipedia_slug":null,"has_3d_model":false,"image_url":null,"decayed_at":null,"tle_current":{"epoch":"2026-09-20T00:10:37.242336Z","epoch_age_seconds":71607,"freshness":"FRESH","line1":"1 69576U 26137E   26263.00737549 -.00000076  00000+0  10428-3 0  9997","line2":"2 69576  50.0020 255.7915 0000297 355.7978   4.2891 13.29326563 12948","mean_motion":13.29326563,"eccentricity":2.97e-5,"inclination_deg":50.002,"raan_deg":255.7915,"arg_perigee_deg":355.7978,"mean_anomaly_deg":4.2891,"bstar":0.00010428,"rev_number":1294,"period_min":108.32552662983,"perigee_km":1149.0808814804,"apogee_km":1149.5280115024,"semimajor_km":7527.4414464914,"source":"CELESTRAK","updated_at":"2026-09-20T09:00:24.993832Z"}}}